Home > Weather > Lord Howe Island > Past weeks

Flag for Australia Past Weather in Lord Howe Island, Lord Howe Island, Australia — Yesterday and Last 2 Weeks

Now
68 °F

Overcast.


Feels Like: 68 °F
Forecast: 64 / 66 °F
Wind: 21 mph from Southwest

Location: Lord Howe Island

Current Time: Jul 23, 2016 at 7:46:39 PM

Latest Report: Jul 23, 2016 at 6:00 PM


Visibility: N/A

Pressure: 29.68 "Hg

Humidity: 56%

Dew Point: 51 °F

Location of Lord Howe IslandLocation

Past Weather in Lord Howe Island — Graph

°F

Lord Howe Island Temperature Yesterday

Maximum temperature yesterday: 68 °F (at 10:30 PM)
Minimum temperature yesterday: 61 °F (at 7:30 AM)
Average temperature yesterday: 65 °F

High & Low Weather Summary for the Past Weeks

 TemperatureHumidityPressure
High72 °F (Jul 23, 12:00 PM)93% (Jul 20, 6:00 PM)30.40 "Hg (Jul 20, 6:00 PM)
Low54 °F (Jul 11, 1:30 AM)44% (Jul 15, 9:00 AM)29.59 "Hg (Jul 23, 1:30 PM)
Average65 °F71%30.12 "Hg
* Reported Jul 8 6:00 PM — Jul 23 6:00 PM, Lord Howe Island, Weather by CustomWeather, © 2016

Note: Actual official high and low records may vary slightly from our data, if they occured in-between our weather recording intervals... More about our weather records

Advertising

Lord Howe Island Weather History for the Previous 24 Hours

Scroll right to see more
 ConditionsComfort  
Time TempWeatherWind HumidityBarometerVisibility
6:00 PM
Sat, Jul 23
68 °FOvercast.21 mph56%29.68 "HgN/A
4:30 PM68 °FMild.21 mph68%29.64 "HgN/A
3:00 PM71 °FOvercast.26 mph86%29.60 "Hg4 mi
1:30 PM72 °FMild.17 mph84%29.59 "HgN/A
12:00 PM72 °FMild.17 mph81%29.63 "HgN/A
10:30 AM72 °FMild.17 mph82%29.67 "HgN/A
9:00 AM72 °FPartly sunny.18 mph82%29.68 "Hg11 mi
7:30 AM70 °FMild.15 mph85%29.67 "HgN/A
6:00 AM70 °FOvercast.15 mph85%29.68 "Hg11 mi
4:30 AM69 °FMild.14 mph86%29.70 "HgN/A
3:00 AM69 °FPassing clouds.10 mph87%29.73 "HgN/A
1:30 AM69 °FMild.12 mph86%29.77 "HgN/A
12:00 AM69 °FOvercast.13 mph85%29.83 "HgN/A
10:30 PM
Fri, Jul 22
68 °FMild.8 mph84%29.84 "HgN/A
9:00 PM67 °FOvercast.6 mph82%29.86 "HgN/A
7:30 PM65 °FMild.5 mph80%29.88 "HgN/A
Weather by CustomWeather, © 2016

See weather overviewHow to use our weather pages